[[{"header":{"parameterUnit":"m.s-1","parameterCategory":1,"la1":30.2992,"la2":30.254,"lo1":-89.0895,"lo2":-89.0443,"dy":0.0025,"dx":0.0025,"nx":19,"ny":19,"refTime":"2026-05-15T21:00:00:Z","depth":0,"parameterNumber":2,"parameterNumberName":"U-component_of_WINDS"},"data":[0,0,0,-1.7445,-1.7446,-1.7449,-1.7449,-1.7467,-1.7467,0,0,0,0,0,0,0,0,0,0,0,-1.7452,-1.7452,-1.7445,-1.7446,-1.7449,-1.7449,-1.7467,-1.7467,0,0,0,0,0,0,0,0,0,0,0,-1.7451,-1.7452,-1.7452,-1.7446,-1.7449,-1.7449,-1.7467,-1.746,0,0,0,0,0,0,0,0,0,0,-1.7454,-1.7467,-1.7452,-1.7452,-1.7446,-1.7449,-1.7449,-1.7459,-1.746,-1.7471,0,-1.7482,0,-1.7475,-1.7469,-1.7469,0,0,0,-1.744,-1.7466,-1.746,-1.7452,-1.7446,-1.7449,-1.7446,-1.7459,-1.7461,-1.7472,-1.7482,-1.7482,-1.7475,-1.7469,-1.747,-1.7548,-1.7548,0,0,-1.744,-1.7456,-1.7459,-1.7461,-1.7461,-1.7446,-1.7446,-1.746,-1.7472,-1.7482,-1.7482,-1.7475,-1.747,-1.747,-1.7547,-1.7548,0,0,0,-1.7443,-1.7456,-1.745,-1.7461,-1.7461,-1.7446,-1.7447,-1.7471,-1.7468,-1.7482,-1.7476,-1.747,-1.747,-1.7546,-1.7547,-1.7593,0,0,0,-1.7443,-1.7458,-1.745,-1.746,-1.7461,-1.7466,-1.7458,-1.7467,-1.7468,-1.7476,-1.747,-1.747,-1.7545,-1.7547,-1.759,-1.7612,0,0,0,-1.7449,-1.7459,-1.7462,-1.7461,-1.7463,-1.7465,-1.7462,-1.7467,-1.7464,-1.7469,-1.7471,-1.7545,-1.7547,-1.7588,-1.7608,-1.7637,0,0,0,-1.746,-1.7503,-1.7463,-1.7508,-1.7463,-1.7493,-1.7462,-1.7484,-1.7494,-1.747,-1.7546,-1.7547,-1.7587,-1.7605,-1.7635,-1.7665,-1.7679,0,0,-1.7523,-1.7511,-1.7536,-1.75,-1.7541,-1.7491,-1.754,-1.7534,-1.752,-1.7539,-1.7541,-1.7591,-1.7608,-1.7637,-1.7752,-1.7763,0,0,0,-1.7561,-1.7579,-1.7587,-1.7597,-1.7593,-1.7592,-1.7577,-1.7575,-1.7591,-1.7533,-1.7609,-1.7618,-1.7635,-1.7649,-1.7658,-1.7671,-1.7554,-1.7554,-1.7554,-1.7673,-1.7652,-1.7693,-1.7673,-1.7683,-1.7667,-1.7674,-1.7668,-1.7645,-1.7663,-1.7669,-1.7741,-1.7758,-1.7765,-1.7779,-1.7683,-1.7683,-1.7683,-1.7684,-1.7763,-1.7786,-1.7753,-1.778,-1.7759,-1.7782,-1.7768,-1.7751,-1.7769,-1.7735,-1.7749,-1.7713,-1.7778,-1.7789,-1.7687,-1.7686,-1.7686,-1.7686,-1.7685,-1.7834,-1.7841,-1.7838,-1.785,-1.7862,-1.7841,-1.786,-1.784,-1.7821,-1.7834,-1.7838,-1.7837,-1.7834,-1.7837,-1.7837,-1.7838,-1.7838,-1.7838,-1.7838,-1.7909,-1.7904,-1.7922,-1.7922,-1.7926,-1.7928,-1.7913,-1.7916,-1.7915,-1.7899,-1.7899,-1.7874,-1.7788,-1.7767,-1.7842,-1.7841,-1.7841,-1.7841,-1.784,-1.8008,-1.7983,-1.8011,-1.8015,-1.8013,-1.8027,-1.8,-1.8009,-1.8009,-1.8019,-1.7991,-1.7931,-1.7918,-1.791,-1.7892,-1.7995,-1.7995,-1.7995,-1.7995,-1.8069,-1.8059,-1.8084,-1.8091,-1.8097,-1.8076,-1.8109,-1.8098,-1.8082,-1.8081,-1.8063,-1.8038,-1.8031,-1.8022,-1.8011,-1.7995,-1.8122,-1.8122,-1.8122,-1.8128,-1.8119,-1.8151,-1.8135,-1.8132,-1.813,-1.8161,-1.8171,-1.8148,-1.8127,-1.808,-1.8074,-1.8034,-1.8021,-1.7999,-1.7984,-1.7952,0,0]},{"header":{"parameterUnit":"m.s-1","parameterCategory":1,"la1":30.2992,"la2":30.254,"lo1":-89.0895,"lo2":-89.0443,"dy":0.0025,"dx":0.0025,"nx":19,"ny":19,"refTime":"2026-05-15T21:00:00:Z","depth":0,"parameterNumber":3,"parameterNumberName":"V-component_of_WINDS"},"data":[0,0,0,4.2914,4.2917,4.3058,4.3058,4.3234,4.3235,0,0,0,0,0,0,0,0,0,0,0,4.2873,4.2874,4.2914,4.2917,4.3058,4.3058,4.3234,4.3235,0,0,0,0,0,0,0,0,0,0,0,4.2872,4.2873,4.2875,4.2918,4.3058,4.3058,4.3233,4.3128,0,0,0,0,0,0,0,0,0,0,4.2992,4.2955,4.2873,4.2875,4.2919,4.3057,4.3058,4.3123,4.3135,4.3169,0,4.3202,0,4.3222,4.3247,4.3248,0,0,0,4.2917,4.2945,4.2983,4.2875,4.292,4.3057,4.2994,4.3129,4.3143,4.3184,4.3205,4.3211,4.3225,4.3248,4.3249,4.3456,4.3457,0,0,4.2909,4.2897,4.2974,4.2991,4.2973,4.299,4.2999,4.3137,4.3158,4.3206,4.3216,4.3228,4.3249,4.3251,4.3455,4.3456,0,0,0,4.2887,4.2892,4.2927,4.2984,4.301,4.2994,4.3004,4.3152,4.3164,4.3217,4.323,4.325,4.3253,4.3454,4.3455,4.3493,0,0,0,4.2882,4.2879,4.2923,4.2918,4.3007,4.3083,4.3015,4.3154,4.3171,4.3229,4.325,4.3254,4.3453,4.3454,4.3489,4.3511,0,0,0,4.2863,4.2877,4.2898,4.2917,4.2977,4.3081,4.3102,4.3158,4.3178,4.3248,4.3255,4.3452,4.3454,4.3486,4.3507,4.3561,0,0,0,4.2839,4.293,4.2898,4.3004,4.2976,4.3105,4.3101,4.3197,4.3262,4.3251,4.3453,4.3455,4.3485,4.3504,4.3557,4.3603,4.3621,0,0,4.2947,4.2942,4.3005,4.2981,4.3113,4.3084,4.322,4.329,4.3306,4.3404,4.3409,4.349,4.3506,4.356,4.3733,4.3748,0,0,0,4.3035,4.308,4.3117,4.3179,4.3235,4.3283,4.3333,4.3359,4.3443,4.3355,4.3526,4.3536,4.3568,4.359,4.3602,4.3629,4.3465,4.3465,4.3465,4.317,4.3187,4.3291,4.3324,4.3384,4.3434,4.3482,4.3524,4.3524,4.3564,4.3592,4.3696,4.3721,4.3731,4.3758,4.362,4.362,4.362,4.362,4.3327,4.3391,4.3389,4.3488,4.3505,4.3588,4.3639,4.3635,4.3713,4.3676,4.3705,4.3661,4.3746,4.3771,4.3623,4.3623,4.3622,4.3622,4.3622,4.3414,4.3448,4.3479,4.3568,4.3634,4.3665,4.3739,4.3752,4.3764,4.3793,4.3822,4.3822,4.382,4.3807,4.3807,4.3807,4.3808,4.3808,4.3808,4.3493,4.3526,4.3588,4.3654,4.3694,4.3748,4.3799,4.3838,4.3884,4.3886,4.3887,4.388,4.3753,4.3719,4.3814,4.3813,4.3812,4.3811,4.3811,4.3641,4.3609,4.3706,4.3746,4.3823,4.3887,4.3902,4.398,4.4014,4.405,4.4038,4.3943,4.3938,4.3928,4.39,4.4036,4.4036,4.4036,4.4036,4.3713,4.3713,4.3813,4.3876,4.3939,4.3962,4.4067,4.4106,4.4141,4.4163,4.4145,4.411,4.4099,4.4101,4.4087,4.4061,4.4235,4.4235,4.4235,4.3804,4.381,4.3898,4.3934,4.3995,4.4046,4.4144,4.4214,4.4247,4.4244,4.4179,4.417,4.4113,4.4095,4.4087,4.4066,4.4018,0,0]}]]